QPF
0.00 0.00 0.00 0.00 0.00 0.00 0.00 0.00 0.00 0.00 0.00 0.00 0.00 0.00 0.00 0.00 0.00 0.00 0.00 0.00 0.00 0.00 0.00 0.00 0.00 0.00 0.00 0.00 0.00 0.00 0.00 0.00 0.00 0.00 0.00 0.00 0.00 0.00 0.00 0.00 0.00 0.00
0.00 0.00 0.00 0.00 0.00 0.00 0.00 0.00 0.00 0.00 0.00 0.00 0.00 0.00 0.00 0.00 0.00 0.00 0.00 0.00 0.00 0.00 0.00 0.00 0.00 0.00 0.00 0.00 0.00 0.00 0.00 0.00 0.00 0.00 0.00 0.00 0.00 0.00 0.00 0.00 0.00 0.00
0.00 0.00 0.00 0.00 0.00 0.00 0.00 0.00 0.00 0.00 0.00 0.00 0.00 0.00 0.00 0.00 0.00 0.00 0.00 0.00 0.00 0.00 0.00 0.00 0.00 0.00 0.00 0.00 0.00 0.00 0.00 0.00 0.00 0.00 0.00 0.00 0.00 0.00 0.00 0.00 0.00 0.00
0.00 0.00 0.00 0.00 0.00 0.00 0.00 0.00 0.00 0.00 0.00 0.00 0.00 0.00 0.00 0.00 0.00 0.00 0.00 0.00 0.00 0.00 0.00 0.00 0.00 0.00 0.00 0.00 0.00 0.00 0.00 0.00 0.00 0.00 0.00 0.00 0.00 0.00 0.00 0.00 0.00 0.00
0.00 0.00 0.00 0.00 0.00 0.00 0.00 0.00 0.00 0.00 0.00 0.00 0.00 0.00 0.00 0.00 0.00 0.00 0.00 0.00 0.00 0.00 0.00 0.00 0.00 0.00 0.00 0.00 0.00 0.00 0.00 0.00 0.00 0.00 0.00 0.00 0.00 0.00 0.00 0.00 0.00 0.00
0.00 0.00 0.00 0.00 0.00 0.00 0.00 0.00 0.00 0.00 0.00 0.00 0.00 0.00 0.00 0.00 0.00 0.00 0.00 0.00 0.00 0.00 0.00 0.00 0.00 0.00 0.00 0.00 0.00 0.00 0.00 0.00 0.00 0.00 0.00 0.00 0.00 0.00 0.00 0.00 0.00 0.00
0.00 0.00 0.00 0.00 0.00 0.00 0.00 0.00 0.00 0.00 0.00 0.00 0.00 0.00 0.00 0.00 0.00 0.00 0.00 0.00 0.00 0.00 0.00 0.00 0.00 0.00 0.00 0.00 0.00 0.00 0.00 0.00 0.00 0.00 0.00 0.00 0.00 0.00 0.00 0.00 0.00 0.00
0.00 0.00 0.00 0.00 0.00 0.00 0.00 0.00 0.00 0.00 0.00 0.00 0.00 0.00 0.00 0.00 0.00 0.00 0.00 0.00 0.00 0.00 0.00 0.00 0.00 0.00 0.00 0.00 0.00 0.00 0.00 0.00 0.00 0.00 0.00 0.00 0.00 0.00 0.00 0.00 0.00 0.00
0.00 0.00 0.00 0.00 0.00 0.00 0.00 0.00 0.00 0.00 0.00 0.00 0.00 0.00 0.00 0.00 0.00 0.00 0.00 0.00 0.00 0.00 0.00 0.00 0.00 0.00 0.00 0.00 0.00 0.00 0.00 0.00 0.00 0.00 0.00 0.00 0.00 0.00 0.00 0.00 0.00 0.00
0.00 0.00 0.00 0.00 0.00 0.00 0.00 0.00 0.00 0.00 0.00 0.00 0.00 0.00 0.00 0.00 0.00 0.00 0.00 0.00 0.00 0.00 0.00 0.00 0.00 0.00 0.00 0.00 0.00 0.00 0.00 0.00 0.00 0.00 0.00 0.00 0.00 0.00 0.00 0.00 0.00 0.00
0.00 0.00 0.00 0.00 0.00 0.00 0.00 0.00 0.00 0.00 0.00 0.00 0.00 0.00 0.00 0.00 0.00 0.00 0.00 0.00 0.00 0.00 0.00 0.00 0.00 0.00 0.00 0.00 0.00 0.00 0.00 0.00 0.00 0.00 0.00 0.00 0.00 0.00 0.00 0.00 0.00 0.00
0.00 0.00 0.00 0.00 0.00 0.00 0.00 0.00 0.00 0.00 0.00 0.00 0.00 0.00 0.00 0.00 0.00 0.00 0.00 0.00 0.00 0.00 0.00 0.00 0.00 0.00 0.00 0.00 0.00 0.00 0.00 0.00 0.00 0.00 0.00 0.00 0.00 0.00 0.00 0.00 0.00 0.00
0.00 0.00 0.00 0.00 0.00 0.00 0.00 0.00 0.00 0.00 0.00 0.00 0.00 0.00 0.00 0.00 0.00 0.00 0.00 0.00 0.00 0.00 0.00 0.00 0.00 0.00 0.00 0.00 0.00 0.00 0.00 0.00 0.00 0.00 0.00 0.00 0.00 0.00 0.00 0.00 0.00 0.00
0.00 0.00 0.00 0.00 0.00 0.00 0.00 0.00 0.00 0.00 0.00 0.00 0.00 0.00 0.00 0.00 0.00 0.00 0.00 0.00 0.00 0.00 0.00 0.00 0.00 0.00 0.00 0.00 0.00 0.00 0.00 0.00 0.00 0.00 0.00 0.00 0.00 0.00 0.00 0.00 0.00 0.00
0.00 0.00 0.00 0.00 0.00 0.00 0.00 0.00 0.00 0.00 0.00 0.00 0.00 0.00 0.00 0.00 0.00 0.00 0.00 0.00 0.00 0.00 0.00 0.00 0.00 0.00 0.00 0.00 0.00 0.00 0.00 0.00 0.00 0.00 0.00 0.00 0.00 0.00 0.00 0.00 0.00 0.00
0.00 0.00 0.00 0.00 0.00 0.00 0.00 0.00 0.00 0.00 0.00 0.00 0.00 0.00 0.00 0.00 0.00 0.00 0.00 0.00 0.00 0.00 0.00 0.00 0.00 0.00 0.00 0.00 0.00 0.00 0.00 0.00 0.00 0.00 0.00 0.00 0.00 0.00 0.00 0.00 0.00 0.00
0.00 0.00 0.00 0.00 0.00 0.00 0.00 0.00 0.00 0.00 0.00 0.00 0.00 0.00 0.00 0.00 0.00 0.00 0.00 0.00 0.00 0.00 0.00 0.00 0.00 0.00 0.00 0.00 0.00 0.00 0.00 0.00 0.00 0.00 0.00 0.00 0.00 0.00 0.00 0.00 0.00 0.00
0.00 0.00 0.00 0.00 0.00 0.00 0.00 0.00 0.00 0.00 0.00 0.00 0.00 0.00 0.00 0.00 0.00 0.00 0.00 0.00 0.00 0.00 0.00 0.00 0.00 0.00 0.00 0.00 0.00 0.00 0.00 0.00 0.00 0.00 0.00 0.00 0.00 0.00 0.00 0.00 0.00 0.00
0.00 0.00 0.00 0.00 0.00 0.00 0.00 0.00 0.00 0.00 0.00 0.00 0.00 0.00 0.00 0.00 0.00 0.00 0.00 0.00 0.00 0.00 0.00 0.00 0.00 0.00 0.00 0.00 0.00 0.00 0.00 0.00 0.00 0.00 0.00 0.00 0.00 0.00 0.00 0.00 0.00 0.00
0.00 0.00 0.00 0.00 0.00 0.00 0.00 0.00 0.00 0.00 0.00 0.00 0.00 0.00 0.00 0.00 0.00 0.00 0.00 0.00 0.00 0.00 0.00 0.00 0.00 0.00 0.00 0.00 0.00 0.00 0.00 0.00 0.00 0.00 0.00 0.00 0.00 0.00 0.00 0.00 0.00 0.00
0.00 0.00 0.00 0.00 0.00 0.00 0.00 0.00 0.00 0.00 0.00 0.00 0.00 0.00 0.00 0.00 0.00 0.00 0.00 0.00 0.00 0.00 0.00 0.00 0.00 0.00 0.00 0.00 0.00 0.00 0.00 0.01 0.01 0.01 0.01 0.00 0.00 0.00 0.00 0.00 0.00 0.00
0.00 0.00 0.00 0.00 0.00 0.00 0.00 0.00 0.00 0.00 0.00 0.00 0.00 0.00 0.00 0.00 0.00 0.00 0.00 0.00 0.00 0.00 0.00 0.00 0.00 0.00 0.00 0.00 0.00 0.00 0.01 0.01 0.01 0.01 0.01 0.00 0.00 0.00 0.00 0.00 0.00 0.00
0.00 0.00 0.00 0.00 0.00 0.00 0.00 0.00 0.01 0.00 0.00 0.00 0.00 0.00 0.00 0.00 0.00 0.00 0.00 0.00 0.00 0.00 0.00 0.00 0.00 0.00 0.00 0.00 0.00 0.01 0.01 0.01 0.01 0.01 0.00 0.00 0.00 0.00 0.00 0.00 0.00 0.00
0.00 0.00 0.00 0.00 0.00 0.00 0.01 0.00 0.00 0.00 0.00 0.00 0.01 0.01 0.00 0.00 0.00 0.00 0.00 0.01 0.01 0.00 0.00 0.00 0.00 0.00 0.00 0.00 0.01 0.01 0.01 0.01 0.01 0.01 0.00 0.00 0.00 0.00 0.00 0.00 0.00 0.00
0.00 0.02 0.05 0.01 0.00 0.01 0.01 0.01 0.01 0.02 0.02 0.03 0.02 0.02 0.02 0.02 0.01 0.01 0.01 0.01 0.01 0.00 0.00 0.00 0.00 0.00 0.00 0.00 0.01 0.01 0.01 0.01 0.01 0.00 0.00 0.00 0.00 0.00 0.00 0.00 0.00 0.00
0.01 0.01 0.01 0.00 0.01 0.01 0.02 0.03 0.04 0.05 0.06 0.06 0.06 0.05 0.05 0.04 0.04 0.03 0.02 0.01 0.01 0.00 0.00 0.00 0.00 0.00 0.00 0.00 0.00 0.01 0.01 0.00 0.00 0.00 0.00 0.00 0.00 0.00 0.00 0.00 0.00 0.00
MSLP
1022.58 1022.88 1023.02 1023.16 1023.42 1023.64 1023.92 1024.52 1025.02 1025.48 1025.90 1026.38 1026.42 1026.62 1026.74 1027.00 1027.48 1027.60 1027.64 1027.70 1027.80 1027.98 1028.32 1028.54 1028.70 1028.90 1029.20 1029.40 1029.58 1029.72 1029.88 1030.12 1030.46 1030.68 1030.68 1030.66 1030.92 1030.92 1031.16 1031.50 1031.58 1031.54
1022.58 1022.82 1023.04 1023.12 1023.42 1023.86 1024.06 1024.20 1024.40 1024.94 1025.60 1025.98 1026.12 1026.32 1026.72 1027.12 1027.50 1027.58 1027.60 1027.72 1027.96 1028.20 1028.48 1028.66 1028.82 1028.98 1029.20 1029.42 1029.60 1029.66 1030.08 1030.32 1030.54 1030.84 1030.66 1030.66 1031.08 1031.24 1031.40 1031.52 1031.64 1032.18
1022.52 1022.78 1022.96 1023.08 1023.38 1023.78 1024.02 1024.42 1024.82 1024.94 1025.16 1025.62 1026.02 1026.28 1026.62 1027.14 1027.40 1027.62 1027.66 1027.72 1027.98 1028.34 1028.56 1028.74 1028.92 1029.14 1029.30 1029.50 1029.68 1029.82 1030.08 1030.40 1030.58 1030.90 1030.76 1030.96 1031.40 1031.52 1031.98 1032.16 1032.32 1032.32
1022.52 1022.64 1022.74 1022.98 1023.30 1023.62 1023.96 1024.42 1024.96 1025.30 1025.62 1025.82 1025.96 1026.26 1026.62 1027.08 1027.40 1027.54 1027.68 1027.86 1028.08 1028.40 1028.66 1028.86 1029.02 1029.28 1029.44 1029.66 1029.82 1030.04 1030.30 1030.52 1030.76 1030.86 1030.98 1031.42 1031.72 1031.98 1032.42 1032.66 1032.88 1033.04
1022.28 1022.62 1022.90 1023.06 1023.32 1023.68 1023.88 1024.18 1024.64 1025.16 1025.52 1025.80 1026.14 1026.44 1026.76 1027.14 1027.42 1027.54 1027.68 1027.96 1028.22 1028.50 1028.78 1028.98 1029.24 1029.42 1029.64 1029.84 1029.98 1030.22 1030.54 1030.78 1031.00 1030.88 1030.88 1031.36 1031.94 1032.20 1032.80 1033.08 1033.18 1033.20
1022.16 1022.38 1022.66 1022.98 1023.30 1023.68 1023.96 1024.12 1024.48 1024.94 1025.40 1025.84 1026.08 1026.44 1026.74 1027.08 1027.28 1027.36 1027.58 1027.92 1028.28 1028.52 1028.78 1029.10 1029.32 1029.60 1029.82 1030.00 1030.22 1030.40 1030.68 1030.88 1030.98 1030.76 1030.82 1031.22 1031.88 1032.34 1032.84 1033.28 1033.40 1033.38
1021.84 1022.28 1022.66 1022.96 1023.30 1023.54 1023.60 1023.92 1024.44 1024.92 1025.22 1025.50 1026.10 1026.36 1026.68 1027.02 1027.22 1027.32 1027.56 1027.88 1028.22 1028.52 1028.74 1029.04 1029.34 1029.68 1029.98 1030.20 1030.36 1030.60 1030.82 1030.82 1030.86 1030.68 1030.72 1031.42 1031.72 1032.22 1032.74 1033.12 1033.42 1033.54
1021.62 1021.92 1022.26 1022.68 1023.08 1023.46 1023.62 1024.02 1024.44 1024.80 1025.20 1025.64 1025.84 1026.22 1026.54 1026.82 1027.02 1027.26 1027.56 1027.92 1028.26 1028.58 1028.88 1029.16 1029.46 1029.72 1030.02 1030.20 1030.34 1030.58 1030.76 1030.86 1030.72 1030.62 1030.80 1031.36 1031.68 1031.92 1032.46 1032.90 1033.34 1033.54
1021.44 1021.80 1022.12 1022.54 1022.88 1023.18 1023.48 1023.92 1024.36 1024.76 1025.12 1025.34 1025.70 1026.12 1026.52 1026.74 1026.90 1027.16 1027.54 1027.98 1028.34 1028.66 1028.96 1029.26 1029.48 1029.70 1030.00 1030.14 1030.30 1030.44 1030.56 1030.70 1030.64 1030.50 1030.68 1031.16 1031.58 1031.88 1032.24 1032.78 1033.14 1033.46
1021.26 1021.72 1022.14 1022.34 1022.56 1022.88 1023.24 1023.70 1024.18 1024.60 1024.98 1025.22 1025.54 1025.98 1026.32 1026.74 1027.02 1027.22 1027.62 1028.02 1028.36 1028.70 1028.96 1029.20 1029.50 1029.74 1030.04 1030.22 1030.30 1030.38 1030.46 1030.54 1030.64 1030.66 1030.82 1031.12 1031.38 1031.86 1032.30 1032.64 1032.82 1033.26
1021.20 1021.56 1021.94 1022.36 1022.52 1022.76 1023.08 1023.58 1024.02 1024.52 1024.92 1025.10 1025.54 1025.94 1026.32 1026.72 1027.10 1027.38 1027.66 1027.98 1028.18 1028.44 1028.76 1029.10 1029.38 1029.68 1029.98 1030.24 1030.44 1030.50 1030.50 1030.54 1030.62 1030.68 1030.90 1031.20 1031.48 1031.82 1032.16 1032.42 1032.76 1032.86
1021.08 1021.50 1021.80 1022.10 1022.44 1022.78 1023.18 1023.62 1024.04 1024.44 1024.80 1025.14 1025.44 1025.78 1026.28 1026.64 1026.84 1027.22 1027.42 1027.70 1027.96 1028.28 1028.62 1029.00 1029.34 1029.64 1029.92 1030.20 1030.44 1030.58 1030.66 1030.68 1030.70 1030.74 1030.96 1031.26 1031.58 1031.88 1032.12 1032.36 1032.52 1032.74
1020.88 1021.28 1021.66 1022.08 1022.46 1022.82 1023.28 1023.70 1023.98 1024.34 1024.74 1025.06 1025.46 1025.76 1026.12 1026.50 1026.84 1027.06 1027.34 1027.56 1027.88 1028.28 1028.66 1028.98 1029.32 1029.66 1029.96 1030.24 1030.48 1030.62 1030.66 1030.72 1030.76 1030.84 1031.06 1031.32 1031.58 1031.82 1032.12 1032.38 1032.50 1032.62
1020.54 1021.04 1021.44 1021.80 1022.26 1022.72 1023.12 1023.54 1023.92 1024.34 1024.72 1025.10 1025.46 1025.68 1025.96 1026.26 1026.50 1026.82 1027.22 1027.56 1027.88 1028.28 1028.66 1029.00 1029.32 1029.64 1029.94 1030.20 1030.44 1030.58 1030.66 1030.72 1030.72 1030.80 1031.02 1031.28 1031.58 1031.88 1032.14 1032.30 1032.40 1032.48
1020.26 1020.76 1021.22 1021.68 1022.12 1022.56 1023.02 1023.50 1023.96 1024.34 1024.66 1024.96 1025.28 1025.50 1025.78 1026.08 1026.44 1026.80 1027.18 1027.60 1027.96 1028.28 1028.62 1028.90 1029.16 1029.42 1029.70 1029.96 1030.24 1030.48 1030.60 1030.62 1030.68 1030.74 1030.88 1031.10 1031.52 1031.86 1032.14 1032.30 1032.38 1032.42
1019.98 1020.54 1021.06 1021.58 1022.04 1022.42 1022.92 1023.38 1023.82 1024.28 1024.62 1024.90 1025.14 1025.30 1025.58 1025.96 1026.34 1026.72 1027.08 1027.36 1027.72 1028.12 1028.38 1028.66 1028.90 1029.16 1029.44 1029.70 1029.94 1030.14 1030.28 1030.44 1030.62 1030.70 1030.78 1031.04 1031.34 1031.72 1032.02 1032.18 1032.22 1032.28
1019.86 1020.44 1020.96 1021.46 1021.86 1022.32 1022.82 1023.20 1023.64 1024.12 1024.54 1024.84 1025.12 1025.30 1025.50 1025.82 1026.14 1026.50 1026.84 1027.14 1027.44 1027.72 1028.06 1028.38 1028.64 1028.92 1029.22 1029.42 1029.60 1029.88 1030.12 1030.28 1030.36 1030.46 1030.70 1030.94 1031.20 1031.40 1031.48 1031.74 1032.00 1032.10
1019.66 1020.28 1020.84 1021.30 1021.78 1022.22 1022.62 1023.02 1023.36 1023.78 1024.24 1024.66 1025.00 1025.26 1025.60 1025.94 1026.10 1026.22 1026.50 1026.88 1027.22 1027.54 1027.82 1028.06 1028.38 1028.70 1028.98 1029.16 1029.36 1029.56 1029.86 1030.12 1030.20 1030.24 1030.56 1030.78 1030.98 1031.14 1031.22 1031.38 1031.54 1031.76
1019.62 1020.10 1020.52 1021.00 1021.42 1021.82 1022.22 1022.64 1022.96 1023.34 1023.82 1024.34 1024.72 1025.06 1025.46 1025.74 1025.90 1026.20 1026.44 1026.76 1027.06 1027.34 1027.64 1027.98 1028.30 1028.54 1028.76 1028.94 1029.14 1029.32 1029.56 1029.92 1030.04 1030.08 1030.32 1030.58 1030.74 1030.88 1030.98 1031.08 1031.24 1031.46
1019.44 1019.86 1020.26 1020.66 1021.04 1021.46 1021.88 1022.32 1022.78 1022.98 1023.18 1023.58 1024.22 1024.86 1025.26 1025.60 1025.90 1026.14 1026.44 1026.72 1026.94 1027.20 1027.50 1027.82 1028.10 1028.34 1028.48 1028.68 1028.88 1029.02 1029.20 1029.52 1029.84 1029.96 1030.12 1030.28 1030.40 1030.54 1030.66 1030.70 1030.82 1031.00
1019.22 1019.60 1019.96 1020.40 1020.84 1021.36 1021.88 1022.32 1022.70 1023.10 1023.44 1023.70 1024.00 1024.44 1024.94 1025.34 1025.68 1026.04 1026.32 1026.58 1026.84 1027.04 1027.28 1027.60 1027.88 1028.12 1028.24 1028.42 1028.64 1028.80 1028.90 1029.16 1029.70 1029.96 1030.08 1030.14 1030.22 1030.30 1030.28 1030.28 1030.48 1030.70
1018.90 1019.32 1019.78 1020.30 1020.86 1021.36 1021.76 1022.14 1022.56 1022.88 1023.22 1023.64 1024.00 1024.40 1024.82 1025.26 1025.70 1025.98 1026.16 1026.34 1026.64 1026.98 1027.26 1027.46 1027.64 1027.80 1028.00 1028.20 1028.40 1028.54 1028.66 1028.90 1029.38 1029.72 1029.82 1029.90 1030.02 1030.00 1029.96 1030.06 1030.32 1030.52
1018.96 1019.38 1019.94 1020.48 1020.96 1021.38 1021.78 1022.14 1022.50 1022.88 1023.28 1023.66 1024.02 1024.32 1024.60 1024.92 1025.30 1025.64 1025.96 1026.30 1026.58 1026.88 1027.10 1027.24 1027.48 1027.64 1027.80 1027.98 1028.12 1028.20 1028.40 1028.64 1029.02 1029.44 1029.60 1029.66 1029.56 1029.58 1029.64 1029.84 1030.06 1030.18
1019.22 1019.62 1020.04 1020.52 1020.96 1021.24 1021.56 1021.98 1022.42 1022.84 1023.22 1023.60 1023.86 1024.28 1024.68 1025.06 1025.40 1025.76 1026.10 1026.36 1026.64 1026.94 1027.10 1027.16 1027.24 1027.50 1027.60 1027.70 1027.84 1027.96 1028.08 1028.30 1028.62 1029.04 1029.16 1029.26 1029.28 1029.36 1029.44 1029.56 1029.60 1029.74
1019.04 1019.54 1019.94 1020.46 1020.92 1021.24 1021.60 1021.94 1022.30 1022.64 1023.10 1023.62 1023.96 1024.26 1024.58 1024.96 1025.32 1025.64 1025.98 1026.36 1026.66 1026.88 1027.08 1027.18 1027.18 1027.38 1027.46 1027.52 1027.62 1027.74 1027.90 1028.14 1028.42 1028.72 1028.82 1028.80 1028.94 1028.86 1028.92 1029.18 1029.24 1029.36
1019.04 1019.48 1019.86 1020.24 1020.68 1021.20 1021.68 1022.00 1022.40 1022.86 1023.26 1023.66 1024.06 1024.30 1024.62 1024.94 1025.30 1025.62 1025.86 1026.08 1026.38 1026.62 1026.78 1026.90 1027.10 1027.24 1027.42 1027.40 1027.46 1027.58 1027.72 1027.90 1028.14 1028.44 1028.26 1028.06 1028.32 1028.42 1028.44 1028.52 1028.74 1028.94
Thickness
5594 5591 5589 5588 5585 5584 5581 5577 5574 5569 5565 5563 5561 5560 5558 5556 5554 5552 5551 5549 5547 5545 5542 5540 5537 5534 5531 5527 5524 5521 5517 5514 5510 5507 5504 5502 5497 5494 5489 5484 5480 5475
5589 5586 5584 5583 5580 5578 5575 5573 5571 5568 5563 5560 5559 5558 5555 5552 5549 5547 5546 5544 5541 5538 5536 5534 5531 5527 5524 5521 5517 5514 5510 5506 5503 5500 5498 5494 5490 5486 5482 5477 5472 5468
5585 5582 5580 5579 5576 5572 5570 5567 5565 5563 5561 5558 5556 5554 5551 5548 5545 5542 5541 5539 5536 5532 5530 5527 5524 5521 5517 5514 5511 5507 5503 5499 5495 5493 5490 5486 5481 5476 5472 5468 5463 5459
5579 5577 5576 5574 5572 5568 5566 5563 5559 5557 5555 5553 5552 5550 5546 5543 5539 5537 5535 5532 5530 5526 5523 5520 5517 5513 5510 5506 5503 5499 5495 5492 5488 5486 5482 5476 5472 5467 5462 5458 5453 5449
5575 5573 5571 5569 5566 5563 5562 5560 5556 5553 5550 5548 5546 5544 5541 5538 5534 5532 5529 5526 5523 5519 5516 5513 5509 5506 5502 5498 5495 5491 5487 5483 5480 5479 5475 5469 5463 5457 5451 5447 5443 5439
5572 5569 5567 5564 5562 5559 5558 5557 5553 5550 5547 5544 5541 5538 5535 5532 5529 5527 5524 5520 5516 5513 5509 5505 5501 5498 5494 5490 5486 5483 5479 5476 5473 5471 5468 5461 5455 5449 5443 5437 5433 5430
5570 5567 5564 5561 5558 5556 5555 5553 5549 5546 5543 5539 5536 5534 5530 5527 5524 5521 5518 5514 5510 5506 5502 5498 5494 5490 5486 5482 5478 5474 5471 5468 5466 5464 5460 5454 5448 5442 5436 5430 5424 5421
5568 5565 5562 5558 5555 5553 5551 5548 5544 5541 5538 5535 5532 5529 5525 5521 5519 5516 5512 5508 5503 5499 5495 5491 5486 5482 5478 5475 5471 5467 5463 5460 5459 5457 5452 5446 5441 5435 5429 5423 5417 5412
5564 5562 5559 5556 5553 5551 5547 5544 5540 5536 5534 5530 5527 5524 5520 5516 5513 5510 5506 5501 5496 5492 5487 5483 5478 5474 5471 5467 5463 5460 5456 5453 5451 5449 5445 5439 5434 5429 5422 5416 5410 5405
5561 5558 5555 5552 5550 5547 5544 5540 5535 5532 5529 5526 5522 5518 5514 5510 5507 5503 5499 5494 5490 5485 5480 5475 5471 5467 5463 5458 5456 5453 5449 5446 5443 5440 5437 5432 5427 5421 5415 5409 5404 5399
5558 5554 5551 5548 5545 5542 5539 5535 5530 5526 5523 5520 5516 5512 5508 5504 5499 5496 5492 5487 5483 5479 5474 5469 5464 5460 5455 5451 5447 5444 5440 5437 5435 5432 5428 5424 5418 5413 5408 5402 5397 5392
5553 5550 5546 5543 5539 5536 5532 5528 5524 5520 5517 5514 5510 5506 5501 5496 5493 5490 5486 5482 5477 5473 5467 5462 5457 5452 5447 5443 5438 5434 5431 5428 5426 5424 5419 5415 5410 5405 5400 5395 5389 5384
5549 5545 5541 5537 5533 5530 5526 5522 5518 5515 5511 5508 5503 5500 5495 5491 5487 5484 5480 5476 5470 5465 5460 5455 5450 5444 5439 5435 5430 5426 5422 5420 5417 5415 5411 5406 5402 5396 5391 5386 5381 5377
5546 5540 5536 5533 5528 5524 5520 5516 5513 5508 5504 5501 5497 5493 5489 5485 5482 5477 5472 5468 5463 5458 5453 5447 5442 5437 5432 5427 5423 5418 5414 5412 5410 5407 5403 5398 5393 5388 5382 5378 5374 5369
5541 5536 5532 5528 5523 5519 5515 5511 5507 5502 5498 5495 5491 5488 5484 5479 5475 5471 5466 5461 5456 5450 5446 5441 5436 5431 5426 5421 5416 5411 5407 5405 5403 5400 5396 5391 5385 5379 5374 5370 5365 5361
5537 5532 5527 5522 5519 5514 5510 5506 5501 5496 5492 5489 5486 5482 5478 5474 5469 5464 5460 5454 5449 5445 5440 5435 5431 5426 5420 5415 5410 5405 5401 5399 5396 5393 5389 5384 5378 5372 5367 5362 5358 5353
5532 5527 5522 5517 5514 5509 5504 5500 5496 5491 5486 5482 5479 5475 5471 5468 5463 5459 5454 5449 5445 5440 5435 5431 5426 5420 5414 5408 5403 5399 5395 5392 5390 5387 5382 5377 5372 5366 5360 5355 5350 5345
5526 5522 5516 5512 5508 5503 5499 5495 5491 5486 5481 5475 5472 5469 5464 5461 5457 5453 5449 5443 5439 5435 5430 5426 5420 5413 5407 5402 5397 5392 5388 5385 5383 5380 5375 5370 5365 5360 5354 5348 5343 5338
5519 5516 5512 5507 5503 5499 5494 5491 5486 5483 5478 5472 5467 5462 5458 5454 5450 5446 5442 5437 5433 5429 5424 5419 5413 5406 5399 5394 5390 5386 5382 5379 5376 5372 5368 5363 5358 5353 5346 5341 5337 5332
5514 5511 5507 5503 5499 5495 5490 5486 5481 5477 5474 5469 5464 5458 5452 5449 5444 5440 5435 5431 5427 5423 5417 5411 5404 5398 5392 5387 5383 5380 5376 5372 5369 5364 5361 5356 5351 5345 5339 5335 5332 5326
5510 5506 5503 5499 5494 5489 5484 5479 5475 5471 5467 5463 5459 5453 5447 5442 5437 5433 5429 5424 5420 5415 5408 5403 5397 5391 5386 5381 5377 5373 5369 5365 5361 5356 5352 5347 5343 5338 5333 5330 5326 5320
5505 5502 5497 5493 5487 5482 5477 5473 5469 5465 5461 5456 5451 5446 5441 5436 5431 5427 5422 5417 5412 5407 5401 5398 5393 5386 5380 5375 5370 5365 5362 5358 5353 5348 5343 5340 5336 5332 5328 5325 5319 5313
5498 5494 5489 5484 5479 5475 5471 5467 5462 5458 5453 5448 5443 5438 5434 5430 5425 5420 5415 5410 5405 5400 5396 5392 5387 5380 5373 5367 5363 5359 5354 5350 5346 5340 5336 5333 5331 5326 5322 5319 5314 5308
5490 5486 5482 5476 5471 5468 5464 5459 5455 5450 5444 5440 5436 5432 5428 5423 5418 5412 5407 5402 5397 5391 5387 5384 5380 5373 5366 5360 5355 5350 5345 5341 5337 5334 5331 5328 5324 5320 5317 5313 5308 5303
5485 5480 5476 5470 5465 5460 5456 5451 5447 5442 5437 5433 5429 5425 5420 5415 5410 5405 5399 5394 5389 5384 5380 5377 5372 5365 5358 5352 5347 5341 5337 5332 5329 5327 5326 5323 5318 5314 5312 5308 5303 5297
5478 5474 5469 5464 5459 5454 5449 5444 5440 5435 5431 5426 5421 5417 5412 5407 5402 5398 5392 5388 5383 5378 5374 5369 5363 5357 5350 5343 5338 5333 5329 5324 5322 5321 5322 5318 5314 5310 5307 5303 5297 5291